Time,TemperatureF,DewpointF,PressureIn,WindDirection,WindDirectionDegrees,WindSpeedMPH,WindSpeedGustMPH,Humidity,HourlyPrecipIn,Conditions,Clouds,dailyrainin,SoftwareType,DateUTC
2013-01-22 00:02:00,1.0,-2.0,30.29,ENE,59,3.0,-999.0,85,-99.99,,,-99.99,,2013-01-22 07:02:00,
2013-01-22 00:11:00,1.0,-2.0,30.29,ENE,59,3.0,-999.0,85,-99.99,,,-99.99,,2013-01-22 07:11:00,
2013-01-22 00:22:00,1.0,-2.0,30.29,NNE,32,2.0,-999.0,85,-99.99,,,-99.99,,2013-01-22 07:22:00,
2013-01-22 00:32:00,0.0,-4.0,30.29,NE,42,1.0,-999.0,84,-99.99,,,-99.99,,2013-01-22 07:32:00,
2013-01-22 00:42:00,0.0,-4.0,30.29,NE,42,1.0,-999.0,84,-99.99,,,-99.99,,2013-01-22 07:42:00,
2013-01-22 00:52:00,1.0,-2.0,30.28,NE,42,0.0,-999.0,86,-99.99,,,-99.99,,2013-01-22 07:52:00,
2013-01-22 01:02:00,1.0,-2.0,30.28,NNE,23,1.0,-999.0,85,-99.99,,,-99.99,,2013-01-22 08:02:00,
2013-01-22 01:11:00,1.0,-2.0,30.28,NNE,23,1.0,-999.0,85,-99.99,,,-99.99,,2013-01-22 08:11:00,
2013-01-22 01:22:00,-1.0,-4.0,30.29,North,355,1.0,-999.0,85,-99.99,,,-99.99,,2013-01-22 08:22:00,
2013-01-22 01:32:00,-1.0,-4.0,30.29,NNW,338,2.0,-999.0,85,-99.99,,,-99.99,,2013-01-22 08:32:00,
2013-01-22 01:42:00,-1.0,-4.0,30.29,NNW,338,2.0,-999.0,85,-99.99,,,-99.99,,2013-01-22 08:42:00,
2013-01-22 01:52:00,-1.0,-5.0,30.29,North,9,0.0,-999.0,84,-99.99,,,-99.99,,2013-01-22 08:52:00,
2013-01-22 02:02:00,-1.0,-5.0,30.30,North,10,1.0,-999.0,82,-99.99,,,-99.99,,2013-01-22 09:02:00,
2013-01-22 02:11:00,-1.0,-5.0,30.30,North,10,1.0,-999.0,82,-99.99,,,-99.99,,2013-01-22 09:11:00,
2013-01-22 02:22:00,-3.0,-7.0,30.30,NE,48,1.0,-999.0,83,-99.99,,,-99.99,,2013-01-22 09:22:00,
2013-01-22 02:32:00,-2.0,-6.0,30.31,NE,56,1.0,-999.0,84,-99.99,,,-99.99,,2013-01-22 09:32:00,
2013-01-22 02:42:00,-2.0,-6.0,30.31,NE,56,1.0,-999.0,84,-99.99,,,-99.99,,2013-01-22 09:42:00,
2013-01-22 02:52:00,-3.0,-7.0,30.32,NNE,32,1.0,-999.0,84,-99.99,,,-99.99,,2013-01-22 09:52:00,
2013-01-22 03:02:00,-2.0,-6.0,30.32,NNW,339,1.0,-999.0,84,-99.99,,,-99.99,,2013-01-22 10:02:00,
2013-01-22 03:11:00,-2.0,-6.0,30.32,NNW,339,1.0,-999.0,84,-99.99,,,-99.99,,2013-01-22 10:11:00,
2013-01-22 03:22:00,-2.0,-6.0,30.32,North,355,1.0,-999.0,83,-99.99,,,-99.99,,2013-01-22 10:22:00,
2013-01-22 03:32:00,-5.0,-9.0,30.32,North,355,1.0,-999.0,81,-99.99,,,-99.99,,2013-01-22 10:32:00,
2013-01-22 03:42:00,-5.0,-9.0,30.32,North,355,1.0,-999.0,81,-99.99,,,-99.99,,2013-01-22 10:42:00,
2013-01-22 03:52:00,-7.0,-11.0,30.31,NE,42,1.0,-999.0,82,-99.99,,,-99.99,,2013-01-22 10:52:00,
2013-01-22 04:02:00,-6.0,-9.0,30.31,NNE,15,2.0,-999.0,86,-99.99,,,-99.99,,2013-01-22 11:02:00,
2013-01-22 04:11:00,-6.0,-9.0,30.31,NNE,15,2.0,-999.0,86,-99.99,,,-99.99,,2013-01-22 11:11:00,
2013-01-22 04:22:00,-7.0,-11.0,30.31,NNE,32,1.0,-999.0,83,-99.99,,,-99.99,,2013-01-22 11:22:00,
2013-01-22 04:32:00,-8.0,-12.0,30.30,NE,55,2.0,-999.0,83,-99.99,,,-99.99,,2013-01-22 11:32:00,
2013-01-22 04:42:00,-8.0,-12.0,30.30,NE,55,2.0,-999.0,83,-99.99,,,-99.99,,2013-01-22 11:42:00,
2013-01-22 04:53:00,-6.0,-8.0,30.30,NE,54,3.0,-999.0,89,-99.99,,,-99.99,,2013-01-22 11:53:00,
2013-01-22 05:02:00,-7.0,-10.0,30.30,NE,55,1.0,-999.0,85,-99.99,,,-99.99,,2013-01-22 12:02:00,
2013-01-22 05:12:00,-7.0,-10.0,30.30,NE,55,1.0,-999.0,85,-99.99,,,-99.99,,2013-01-22 12:12:00,
2013-01-22 05:22:00,-7.0,-10.0,30.28,ENE,62,1.0,-999.0,85,-99.99,,,-99.99,,2013-01-22 12:22:00,
2013-01-22 05:32:00,-7.0,-10.0,30.28,ENE,62,1.0,-999.0,85,-99.99,,,-99.99,,2013-01-22 12:32:00,
2013-01-22 05:42:00,-7.0,-10.0,30.29,NE,53,2.0,-999.0,85,-99.99,,,-99.99,,2013-01-22 12:42:00,
2013-01-22 05:53:00,-7.0,-10.0,30.29,ENE,62,1.0,-999.0,86,-99.99,,,-99.99,,2013-01-22 12:53:00,
2013-01-22 06:12:00,-7.0,-10.0,30.29,ENE,66,1.0,-999.0,86,-99.99,,,-99.99,,2013-01-22 13:12:00,
2013-01-22 06:22:00,-9.0,-13.0,30.30,NE,35,1.0,-999.0,82,-99.99,,,-99.99,,2013-01-22 13:22:00,
2013-01-22 06:32:00,-8.0,-12.0,30.30,NE,50,3.0,-999.0,84,-99.99,,,-99.99,,2013-01-22 13:32:00,
2013-01-22 06:42:00,-8.0,-12.0,30.30,NE,50,3.0,-999.0,84,-99.99,,,-99.99,,2013-01-22 13:42:00,
2013-01-22 06:53:00,-7.0,-11.0,30.30,NE,46,1.0,-999.0,84,-99.99,,,-99.99,,2013-01-22 13:53:00,
2013-01-22 07:02:00,-9.0,-13.0,30.30,NE,47,1.0,-999.0,83,-99.99,,,-99.99,,2013-01-22 14:02:00,
2013-01-22 07:12:00,-9.0,-13.0,30.30,NE,47,1.0,-999.0,83,-99.99,,,-99.99,,2013-01-22 14:12:00,
2013-01-22 07:22:00,-6.0,-9.0,30.30,ENE,66,0.0,-999.0,87,-99.99,,,-99.99,,2013-01-22 14:22:00,
2013-01-22 07:33:00,-8.0,-12.0,30.30,North,11,0.0,-999.0,84,-99.99,,,-99.99,,2013-01-22 14:33:00,
2013-01-22 07:43:00,-8.0,-12.0,30.30,North,11,0.0,-999.0,84,-99.99,,,-99.99,,2013-01-22 14:43:00,
2013-01-22 07:53:00,-9.0,-12.0,30.30,NE,51,1.0,-999.0,84,-99.99,,,-99.99,,2013-01-22 14:53:00,
2013-01-22 08:02:00,-8.0,-11.0,30.31,NE,48,0.0,-999.0,87,-99.99,,,-99.99,,2013-01-22 15:02:00,
2013-01-22 08:12:00,-8.0,-11.0,30.31,NE,48,0.0,-999.0,87,-99.99,,,-99.99,,2013-01-22 15:12:00,
2013-01-22 08:23:00,-9.0,-13.0,30.32,NE,50,1.0,-999.0,83,-99.99,,,-99.99,,2013-01-22 15:23:00,
2013-01-22 08:33:00,-9.0,-12.0,30.32,ENE,59,1.0,-999.0,84,-99.99,,,-99.99,,2013-01-22 15:33:00,
2013-01-22 08:42:00,-9.0,-12.0,30.32,ENE,59,1.0,-999.0,84,-99.99,,,-99.99,,2013-01-22 15:42:00,
2013-01-22 08:53:00,-8.0,-12.0,30.33,NE,44,3.0,-999.0,84,-99.99,,,-99.99,,2013-01-22 15:53:00,
2013-01-22 09:02:00,-6.0,-9.0,30.33,NE,44,1.0,-999.0,85,-99.99,,,-99.99,,2013-01-22 16:02:00,
2013-01-22 09:13:00,-6.0,-9.0,30.33,NE,44,1.0,-999.0,85,-99.99,,,-99.99,,2013-01-22 16:13:00,
2013-01-22 09:22:00,-5.0,-9.0,30.33,NE,49,1.0,-999.0,84,-99.99,,,-99.99,,2013-01-22 16:22:00,
2013-01-22 09:32:00,-4.0,-8.0,30.33,NE,51,1.0,-999.0,84,-99.99,,,-99.99,,2013-01-22 16:32:00,
2013-01-22 09:42:00,-4.0,-8.0,30.33,NE,51,1.0,-999.0,84,-99.99,,,-99.99,,2013-01-22 16:42:00,
2013-01-22 09:53:00,-3.0,-7.0,30.33,NE,47,1.0,-999.0,84,-99.99,,,-99.99,,2013-01-22 16:53:00,
2013-01-22 10:02:00,-1.0,-5.0,30.34,NE,50,0.0,-999.0,83,-99.99,,,-99.99,,2013-01-22 17:02:00,
2013-01-22 10:12:00,-1.0,-5.0,30.34,NE,50,0.0,-999.0,83,-99.99,,,-99.99,,2013-01-22 17:12:00,
2013-01-22 10:22:00,0.0,-4.0,30.35,NE,46,0.0,-999.0,84,-99.99,,,-99.99,,2013-01-22 17:22:00,
2013-01-22 10:32:00,1.0,-3.0,30.35,NNE,29,0.0,-999.0,84,-99.99,,,-99.99,,2013-01-22 17:32:00,
2013-01-22 10:43:00,1.0,-3.0,30.35,NNE,29,0.0,-999.0,84,-99.99,,,-99.99,,2013-01-22 17:43:00,
2013-01-22 10:53:00,3.0,-1.0,30.36,NNE,29,1.0,-999.0,84,-99.99,,,-99.99,,2013-01-22 17:53:00,
2013-01-22 11:02:00,5.0,1.0,30.36,NNE,29,0.0,-999.0,84,-99.99,,,-99.99,,2013-01-22 18:02:00,
2013-01-22 11:12:00,5.0,1.0,30.36,NNE,29,0.0,-999.0,84,-99.99,,,-99.99,,2013-01-22 18:12:00,
2013-01-22 11:22:00,6.0,2.0,30.35,NNE,29,1.0,-999.0,84,-99.99,,,-99.99,,2013-01-22 18:22:00,
2013-01-22 11:33:00,7.0,3.0,30.35,NNE,29,0.0,-999.0,85,-99.99,,,-99.99,,2013-01-22 18:33:00,
2013-01-22 11:42:00,7.0,3.0,30.35,NNE,29,0.0,-999.0,85,-99.99,,,-99.99,,2013-01-22 18:42:00,
2013-01-22 11:53:00,9.0,5.0,30.35,NNE,29,0.0,-999.0,84,-99.99,,,-99.99,,2013-01-22 18:53:00,
2013-01-22 12:02:00,11.0,6.0,30.34,ENE,60,1.0,-999.0,80,-99.99,,,-99.99,,2013-01-22 19:02:00,
2013-01-22 12:12:00,11.0,6.0,30.34,ENE,60,1.0,-999.0,80,-99.99,,,-99.99,,2013-01-22 19:12:00,
2013-01-22 12:22:00,12.0,6.0,30.33,ENE,60,1.0,-999.0,78,-99.99,,,-99.99,,2013-01-22 19:22:00,
2013-01-22 12:32:00,14.0,8.0,30.32,ENE,60,0.0,-999.0,76,-99.99,,,-99.99,,2013-01-22 19:32:00,
2013-01-22 12:42:00,14.0,8.0,30.32,ENE,60,0.0,-999.0,76,-99.99,,,-99.99,,2013-01-22 19:42:00,
2013-01-22 12:53:00,17.0,8.0,30.32,ENE,60,0.0,-999.0,68,-99.99,,,-99.99,,2013-01-22 19:53:00,
2013-01-22 13:02:00,17.0,7.0,30.30,ENE,60,0.0,-999.0,64,-99.99,,,-99.99,,2013-01-22 20:02:00,
2013-01-22 13:12:00,17.0,7.0,30.30,ENE,60,0.0,-999.0,64,-99.99,,,-99.99,,2013-01-22 20:12:00,
2013-01-22 13:22:00,17.0,7.0,30.30,ENE,60,0.0,-999.0,64,-99.99,,,-99.99,,2013-01-22 20:22:00,
2013-01-22 13:32:00,16.0,6.0,30.30,ENE,60,1.0,-999.0,65,-99.99,,,-99.99,,2013-01-22 20:32:00,
2013-01-22 13:42:00,16.0,6.0,30.30,ENE,60,1.0,-999.0,65,-99.99,,,-99.99,,2013-01-22 20:42:00,
2013-01-22 13:53:00,17.0,8.0,30.30,East,93,2.0,-999.0,66,-99.99,,,-99.99,,2013-01-22 20:53:00,
2013-01-22 14:02:00,18.0,9.0,30.30,East,93,1.0,-999.0,66,-99.99,,,-99.99,,2013-01-22 21:02:00,
2013-01-22 14:12:00,18.0,9.0,30.30,East,93,1.0,-999.0,66,-99.99,,,-99.99,,2013-01-22 21:12:00,
2013-01-22 14:22:00,18.0,8.0,30.29,East,93,0.0,-999.0,65,-99.99,,,-99.99,,2013-01-22 21:22:00,
2013-01-22 14:33:00,20.0,9.0,30.29,East,93,0.0,-999.0,63,-99.99,,,-99.99,,2013-01-22 21:33:00,
2013-01-22 14:42:00,20.0,9.0,30.29,East,93,0.0,-999.0,63,-99.99,,,-99.99,,2013-01-22 21:42:00,
2013-01-22 14:53:00,21.0,10.0,30.29,SE,138,1.0,-999.0,61,-99.99,,,-99.99,,2013-01-22 21:53:00,
2013-01-22 15:02:00,21.0,10.0,30.29,SE,141,1.0,-999.0,61,-99.99,,,-99.99,,2013-01-22 22:02:00,
2013-01-22 15:12:00,21.0,10.0,30.29,SE,141,1.0,-999.0,61,-99.99,,,-99.99,,2013-01-22 22:12:00,
2013-01-22 15:22:00,20.0,9.0,30.29,SE,141,2.0,-999.0,62,-99.99,,,-99.99,,2013-01-22 22:22:00,
2013-01-22 15:32:00,20.0,9.0,30.29,SE,141,2.0,-999.0,62,-99.99,,,-99.99,,2013-01-22 22:32:00,
2013-01-22 15:42:00,21.0,10.0,30.28,SE,141,1.0,-999.0,62,-99.99,,,-99.99,,2013-01-22 22:42:00,
2013-01-22 15:53:00,20.0,10.0,30.28,SE,141,2.0,-999.0,64,-99.99,,,-99.99,,2013-01-22 22:53:00,
2013-01-22 16:02:00,20.0,10.0,30.27,SE,141,0.0,-999.0,65,-99.99,,,-99.99,,2013-01-22 23:02:00,
2013-01-22 16:12:00,20.0,10.0,30.27,SE,141,0.0,-999.0,65,-99.99,,,-99.99,,2013-01-22 23:12:00,
2013-01-22 16:22:00,21.0,10.0,30.27,SE,141,0.0,-999.0,63,-99.99,,,-99.99,,2013-01-22 23:22:00,
2013-01-22 16:32:00,22.0,11.0,30.27,SE,141,0.0,-999.0,61,-99.99,,,-99.99,,2013-01-22 23:32:00,
2013-01-22 16:42:00,22.0,11.0,30.27,SE,141,0.0,-999.0,61,-99.99,,,-99.99,,2013-01-22 23:42:00,
2013-01-22 16:53:00,21.0,9.0,30.27,SE,141,0.0,-999.0,60,-99.99,,,-99.99,,2013-01-22 23:53:00,
2013-01-22 17:02:00,16.0,7.0,30.26,SE,141,1.0,-999.0,66,-99.99,,,-99.99,,2013-01-23 00:02:00,
2013-01-22 17:12:00,16.0,7.0,30.26,SE,141,1.0,-999.0,66,-99.99,,,-99.99,,2013-01-23 00:12:00,
2013-01-22 17:22:00,11.0,3.0,30.26,SE,141,1.0,-999.0,68,-99.99,,,-99.99,,2013-01-23 00:22:00,
2013-01-22 17:32:00,8.0,1.0,30.26,SE,141,0.0,-999.0,74,-99.99,,,-99.99,,2013-01-23 00:32:00,
2013-01-22 18:02:00,6.0,2.0,30.27,NE,48,1.0,-999.0,83,-99.99,,,-99.99,,2013-01-23 01:02:00,
2013-01-22 18:22:00,9.0,5.0,30.27,NE,48,0.0,-999.0,82,-99.99,,,-99.99,,2013-01-23 01:22:00,
2013-01-22 18:32:00,8.0,3.0,30.27,NE,48,0.0,-999.0,78,-99.99,,,-99.99,,2013-01-23 01:32:00,
2013-01-22 18:42:00,8.0,3.0,30.27,NE,48,0.0,-999.0,78,-99.99,,,-99.99,,2013-01-23 01:42:00,
2013-01-22 18:53:00,4.0,-1.0,30.27,NE,48,1.0,-999.0,80,-99.99,,,-99.99,,2013-01-23 01:53:00,
2013-01-22 19:02:00,2.0,-3.0,30.28,NE,46,2.0,-999.0,80,-99.99,,,-99.99,,2013-01-23 02:02:00,
2013-01-22 19:22:00,3.0,-1.0,30.28,NE,46,2.0,-999.0,84,-99.99,,,-99.99,,2013-01-23 02:22:00,
2013-01-22 19:32:00,1.0,-4.0,30.28,NE,42,2.0,-999.0,80,-99.99,,,-99.99,,2013-01-23 02:32:00,
2013-01-22 19:42:00,1.0,-4.0,30.28,NE,42,2.0,-999.0,80,-99.99,,,-99.99,,2013-01-23 02:42:00,
2013-01-22 19:53:00,1.0,-3.0,30.28,NE,42,1.0,-999.0,83,-99.99,,,-99.99,,2013-01-23 02:53:00,
2013-01-22 20:02:00,-1.0,-5.0,30.26,NE,42,2.0,-999.0,83,-99.99,,,-99.99,,2013-01-23 03:02:00,
2013-01-22 20:22:00,1.0,-2.0,30.27,North,355,1.0,-999.0,87,-99.99,,,-99.99,,2013-01-23 03:22:00,
2013-01-22 20:32:00,0.0,-4.0,30.27,North,355,1.0,-999.0,83,-99.99,,,-99.99,,2013-01-23 03:32:00,
2013-01-22 20:42:00,0.0,-4.0,30.27,North,355,1.0,-999.0,83,-99.99,,,-99.99,,2013-01-23 03:42:00,
2013-01-22 20:53:00,-2.0,-6.0,30.27,North,10,1.0,-999.0,83,-99.99,,,-99.99,,2013-01-23 03:53:00,
2013-01-22 21:02:00,-3.0,-7.0,30.27,NNE,17,2.0,-999.0,84,-99.99,,,-99.99,,2013-01-23 04:02:00,
2013-01-22 21:22:00,-2.0,-5.0,30.28,NNE,17,2.0,-999.0,87,-99.99,,,-99.99,,2013-01-23 04:22:00,
2013-01-22 21:32:00,-2.0,-5.0,30.28,NNE,17,2.0,-999.0,85,-99.99,,,-99.99,,2013-01-23 04:32:00,
2013-01-22 21:42:00,-2.0,-5.0,30.28,NNE,17,2.0,-999.0,85,-99.99,,,-99.99,,2013-01-23 04:42:00,
2013-01-22 21:53:00,-2.0,-6.0,30.29,NNE,17,1.0,-999.0,82,-99.99,,,-99.99,,2013-01-23 04:53:00,
2013-01-22 22:03:00,-3.0,-7.0,30.29,NNE,17,1.0,-999.0,84,-99.99,,,-99.99,,2013-01-23 05:03:00,
2013-01-22 22:12:00,-3.0,-7.0,30.29,NNE,17,1.0,-999.0,84,-99.99,,,-99.99,,2013-01-23 05:12:00,
2013-01-22 22:22:00,-1.0,-4.0,30.29,North,10,1.0,-999.0,86,-99.99,,,-99.99,,2013-01-23 05:22:00,
2013-01-22 22:32:00,-2.0,-6.0,30.29,North,10,2.0,-999.0,82,-99.99,,,-99.99,,2013-01-23 05:32:00,
2013-01-22 22:42:00,-2.0,-6.0,30.29,North,10,2.0,-999.0,82,-99.99,,,-99.99,,2013-01-23 05:42:00,
2013-01-22 22:52:00,-4.0,-8.0,30.28,North,10,1.0,-999.0,82,-99.99,,,-99.99,,2013-01-23 05:52:00,
2013-01-22 23:02:00,-4.0,-8.0,30.29,North,10,1.0,-999.0,84,-99.99,,,-99.99,,2013-01-23 06:02:00,
2013-01-22 23:12:00,-4.0,-8.0,30.29,North,10,1.0,-999.0,84,-99.99,,,-99.99,,2013-01-23 06:12:00,
2013-01-22 23:22:00,-3.0,-7.0,30.29,NNE,13,1.0,-999.0,83,-99.99,,,-99.99,,2013-01-23 06:22:00,
2013-01-22 23:32:00,-2.0,-5.0,30.29,NNE,13,1.0,-999.0,86,-99.99,,,-99.99,,2013-01-23 06:32:00,
2013-01-22 23:42:00,-2.0,-5.0,30.29,NNE,13,1.0,-999.0,86,-99.99,,,-99.99,,2013-01-23 06:42:00,
2013-01-22 23:52:00,-2.0,-6.0,30.30,NNE,13,1.0,-999.0,84,-99.99,,,-99.99,,2013-01-23 06:52:00,